Location: *
(52.2090°N, 4.1550°W)
Time: 03:17:15
(UTC+00:00)

IRAS Rocket - Pass Details

Date: 19 July 2019
Orbit: 847 x 878 km, 100.0° (Epoch: 20 August)

Event Time Altitude Azimuth Distance (km) Brightness Sun altitude
Exits shadow 22:03:17 14° 147° (SSE) 2,219 5.7 -10.9°
Maximum altitude 22:08:03 68° 68° (ENE) 945 4.4 -11.3°
Drops below altitude 10° 22:13:39 10° 346° (NNW) 2,544 8.0 -11.8°
Sets 22:16:04 0° 344° (NNW) 3,488 9.1 -12.0°
